| time (UTC) | temp F | wind direction | speed knots | gust knots | rain 1hr in | rain 24hr in | rain mn in | humidity % | barometer mb |
| 20260509053124 | 54 | 0 | 0.0 | 0.0 | 0.00 | 0.00 | 0.00 | 83 | 1013.2 |
| 20260509051547 | 54 | 0 | 0.0 | 0.0 | 0.00 | 0.00 | 0.00 | 82 | 1013.2 |
| 20260509050045 | 55 | 0 | 0.0 | 0.0 | 0.00 | 0.00 | 0.00 | 81 | 1013.2 |
| 20260509044537 | 55 | 0 | 0.0 | 0.0 | 0.00 | 0.00 | 0.00 | 80 | 1013.5 |
| 20260509043038 | 55 | 0 | 0.0 | 0.0 | 0.00 | 0.00 | 0.00 | 79 | 1013.7 |
| 20260509041539 | 55 | 0 | 0.0 | 0.0 | 0.00 | 0.00 | 0.00 | 78 | 1013.8 |
| 20260509040041 | 55 | 0 | 0.0 | 0.0 | 0.00 | 0.00 | 0.00 | 77 | 1014.0 |
| 20260509034539 | 55 | 0 | 0.0 | 0.0 | 0.00 | 0.00 | 0.00 | 77 | 1014.0 |
| 20260509033037 | 56 | 0 | 0.0 | 0.0 | 0.00 | 0.00 | 0.00 | 76 | 1014.2 |
| 20260509031538 | 56 | 0 | 0.0 | 0.0 | 0.00 | 0.00 | 0.00 | 75 | 1014.1 |
| 20260509030040 | 56 | 0 | 0.0 | 0.0 | 0.00 | 0.00 | 0.00 | 74 | 1014.0 |
| 20260509024542 | 57 | 0 | 0.0 | 0.9 | 0.00 | 0.00 | 0.00 | 74 | 1014.2 |
| 20260509023045 | 57 | 0 | 0.0 | 0.0 | 0.00 | 0.00 | 0.00 | 73 | 1014.0 |
| 20260509021537 | 57 | 0 | 0.0 | 0.9 | 0.00 | 0.00 | 0.00 | 72 | 1014.0 |
| 20260509020044 | 58 | 0 | 0.0 | 0.0 | 0.00 | 0.00 | 0.00 | 71 | 1014.0 |
| 20260509014539 | 59 | 0 | 0.0 | 0.9 | 0.00 | 0.00 | 0.00 | 70 | 1013.8 |
| 20260509013057 | 59 | 0 | 0.0 | 0.0 | 0.00 | 0.00 | 0.00 | 68 | 1013.7 |
| 20260509011539 | 60 | 0 | 0.0 | 0.0 | 0.00 | 0.00 | 0.00 | 66 | 1013.7 |
| 20260509010037 | 61 | 0 | 0.0 | 0.9 | 0.00 | 0.00 | 0.00 | 63 | 1013.6 |
| 20260509004542 | 62 | 0 | 0.0 | 0.0 | 0.00 | 0.00 | 0.00 | 61 | 1013.6 |
| 20260509003055 | 64 | 0 | 0.0 | 0.0 | 0.00 | 0.00 | 0.00 | 62 | 1013.8 |
| 20260509001542 | 65 | 0 | 0.0 | 0.0 | 0.00 | 0.00 | 0.00 | 61 | 1013.7 |
| 20260509000039 | 66 | 0 | 0.0 | 0.0 | 0.00 | 0.00 | 0.00 | 59 | 1013.8 |
| 20260508234541 | 67 | 0 | 0.0 | 0.9 | 0.00 | 0.00 | 0.00 | 59 | 1013.9 |
| 20260508233037 | 67 | 0 | 0.0 | 0.0 | 0.00 | 0.00 | 0.00 | 59 | 1013.8 |
| 20260508231541 | 68 | 0 | 0.0 | 0.9 | 0.00 | 0.00 | 0.00 | 57 | 1013.7 |
| 20260508230044 | 68 | 0 | 0.0 | 1.7 | 0.00 | 0.00 | 0.00 | 55 | 1013.6 |
| 20260508224542 | 68 | 0 | 0.0 | 0.9 | 0.00 | 0.00 | 0.00 | 55 | 1013.5 |
| 20260508223039 | 69 | 0 | 0.0 | 0.9 | 0.00 | 0.00 | 0.00 | 54 | 1013.7 |
| 20260508221540 | 69 | 0 | 0.0 | 0.9 | 0.00 | 0.00 | 0.00 | 52 | 1013.8 |
| 20260508220037 | 70 | 0 | 0.0 | 2.6 | 0.00 | 0.00 | 0.00 | 46 | 1013.8 |
| 20260508214536 | 70 | 323 | 0.0 | 1.7 | 0.00 | 0.00 | 0.00 | 47 | 1014.0 |
| 20260508213037 | 70 | 323 | 0.9 | 2.6 | 0.00 | 0.00 | 0.00 | 43 | 1014.2 |
| 20260508211535 | 71 | 295 | 0.9 | 3.5 | 0.00 | 0.00 | 0.00 | 41 | 1014.2 |
| 20260508210036 | 71 | 0 | 0.0 | 2.6 | 0.00 | 0.00 | 0.00 | 38 | 1014.2 |
| 20260508204538 | 71 | 0 | 0.0 | 2.6 | 0.00 | 0.00 | 0.00 | 41 | 1014.0 |
| 20260508203046 | 72 | 0 | 0.0 | 1.7 | 0.00 | 0.00 | 0.00 | 39 | 1014.3 |
| 20260508201537 | 72 | 0 | 0.0 | 3.5 | 0.00 | 0.00 | 0.00 | 40 | 1014.4 |
| 20260508200038 | 72 | 0 | 0.0 | 2.6 | 0.00 | 0.00 | 0.00 | 41 | 1014.5 |
| 20260508194540 | 73 | 0 | 0.0 | 1.7 | 0.00 | 0.00 | 0.00 | 40 | 1014.7 |
| 20260508193043 | 73 | 0 | 0.0 | 2.6 | 0.00 | 0.00 | 0.00 | 41 | 1015.2 |
| 20260508191541 | 74 | 127 | 0.0 | 1.7 | 0.00 | 0.00 | 0.00 | 37 | 1015.5 |
| 20260508190043 | 73 | 132 | 0.0 | 1.7 | 0.00 | 0.00 | 0.00 | 41 | 1015.9 |
| 20260508184541 | 73 | 125 | 0.0 | 2.6 | 0.00 | 0.00 | 0.00 | 43 | 1016.1 |
| 20260508183041 | 72 | 0 | 0.9 | 2.6 | 0.00 | 0.00 | 0.00 | 42 | 1016.2 |
| 20260508181543 | 72 | 136 | 0.0 | 5.2 | 0.00 | 0.00 | 0.00 | 40 | 1016.6 |
| 20260508180039 | 72 | 0 | 0.0 | 1.7 | 0.00 | 0.00 | 0.00 | 44 | 1016.8 |
| 20260508174556 | 71 | 59 | 0.9 | 5.2 | 0.00 | 0.00 | 0.00 | 44 | 1016.5 |
| 20260508173035 | 71 | 153 | 0.0 | 6.1 | 0.00 | 0.00 | 0.00 | 47 | 1016.6 |
| 20260508171536 | 70 | 186 | 0.0 | 3.5 | 0.00 | 0.00 | 0.00 | 49 | 1017.1 |
| 20260508170040 | 69 | 115 | 1.7 | 5.2 | 0.00 | 0.00 | 0.00 | 46 | 1017.6 |
| 20260508164545 | 68 | 173 | 0.0 | 2.6 | 0.00 | 0.00 | 0.00 | 49 | 1017.8 |
| 20260508163105 | 66 | 0 | 0.9 | 5.2 | 0.00 | 0.00 | 0.00 | 49 | 1017.8 |
| 20260508161539 | 67 | 128 | 0.9 | 5.2 | 0.00 | 0.00 | 0.00 | 52 | 1018.4 |
| 20260508160037 | 67 | 119 | 0.0 | 3.5 | 0.00 | 0.00 | 0.00 | 52 | 1018.5 |
| 20260508154537 | 67 | 0 | 0.0 | 2.6 | 0.00 | 0.00 | 0.00 | 54 | 1018.4 |
| 20260508153040 | 66 | 0 | 0.0 | 2.6 | 0.00 | 0.00 | 0.00 | 56 | 1018.6 |
| 20260508151541 | 65 | 82 | 0.9 | 2.6 | 0.00 | 0.00 | 0.00 | 50 | 1018.8 |
| 20260508150037 | 65 | 122 | 0.9 | 3.5 | 0.00 | 0.00 | 0.00 | 59 | 1018.8 |
| 20260508144539 | 63 | 0 | 0.0 | 1.7 | 0.00 | 0.00 | 0.00 | 63 | 1018.8 |
| 20260508143042 | 63 | 0 | 0.0 | 3.5 | 0.00 | 0.00 | 0.00 | 72 | 1018.8 |
| 20260508141540 | 62 | 0 | 0.0 | 2.6 | 0.00 | 0.00 | 0.00 | 71 | 1019.0 |
| 20260508140038 | 60 | 169 | 0.0 | 2.6 | 0.00 | 0.00 | 0.00 | 73 | 1019.1 |
| 20260508134540 | 58 | 156 | 0.0 | 2.6 | 0.00 | 0.00 | 0.00 | 77 | 1019.1 |
| 20260508133044 | 57 | 0 | 0.0 | 2.6 | 0.00 | 0.00 | 0.00 | 83 | 1019.2 |
| 20260508131545 | 55 | 0 | 0.0 | 0.9 | 0.00 | 0.00 | 0.00 | 89 | 1019.0 |
| 20260508130037 | 52 | 0 | 0.0 | 0.9 | 0.00 | 0.00 | 0.00 | 94 | 1018.8 |
| 20260508124542 | 50 | 0 | 0.0 | 1.7 | 0.00 | 0.00 | 0.00 | 95 | 1018.8 |
| 20260508123039 | 47 | 0 | 0.0 | 0.0 | 0.00 | 0.00 | 0.00 | 95 | 1018.8 |
| 20260508121537 | 45 | 0 | 0.0 | 0.0 | 0.00 | 0.00 | 0.00 | 94 | 1018.8 |
| 20260508120037 | 44 | 0 | 0.0 | 0.0 | 0.00 | 0.00 | 0.00 | 93 | 1018.6 |
| 20260508114541 | 44 | 0 | 0.0 | 0.0 | 0.00 | 0.00 | 0.00 | 93 | 1018.4 |
| 20260508113048 | 44 | 0 | 0.0 | 0.0 | 0.00 | 0.00 | 0.00 | 92 | 1018.3 |
| 20260508111537 | 44 | 0 | 0.0 | 0.0 | 0.00 | 0.00 | 0.00 | 92 | 1018.1 |
| 20260508110052 | 44 | 0 | 0.0 | 0.0 | 0.00 | 0.00 | 0.00 | 92 | 1017.7 |
| 20260508104536 | 44 | 0 | 0.0 | 0.0 | 0.00 | 0.00 | 0.00 | 92 | 1017.7 |
| 20260508103040 | 44 | 0 | 0.0 | 0.0 | 0.00 | 0.00 | 0.00 | 92 | 1017.3 |
| 20260508101549 | 45 | 0 | 0.0 | 0.0 | 0.00 | 0.00 | 0.00 | 92 | 1017.3 |
| 20260508100039 | 45 | 0 | 0.0 | 0.0 | 0.00 | 0.00 | 0.00 | 92 | 1017.0 |
| 20260508094550 | 45 | 0 | 0.0 | 0.0 | 0.00 | 0.00 | 0.00 | 92 | 1017.1 |
| 20260508093052 | 46 | 0 | 0.0 | 0.0 | 0.00 | 0.00 | 0.00 | 92 | 1016.9 |
| 20260508091539 | 46 | 0 | 0.0 | 0.0 | 0.00 | 0.00 | 0.00 | 92 | 1017.0 |
| 20260508090057 | 46 | 0 | 0.0 | 0.0 | 0.00 | 0.00 | 0.00 | 92 | 1017.1 |
| 20260508084538 | 46 | 0 | 0.0 | 0.0 | 0.00 | 0.00 | 0.00 | 92 | 1017.1 |
| 20260508083037 | 46 | 0 | 0.0 | 0.0 | 0.00 | 0.00 | 0.00 | 92 | 1017.0 |
| 20260508081537 | 46 | 0 | 0.0 | 0.0 | 0.00 | 0.00 | 0.00 | 92 | 1017.0 |
| 20260508080040 | 46 | 0 | 0.0 | 0.0 | 0.00 | 0.00 | 0.00 | 91 | 1016.9 |
| 20260508074542 | 46 | 0 | 0.0 | 0.0 | 0.00 | 0.00 | 0.00 | 91 | 1017.1 |
| 20260508073038 | 47 | 0 | 0.0 | 0.0 | 0.00 | 0.00 | 0.00 | 91 | 1017.1 |
| 20260508071538 | 47 | 0 | 0.0 | 0.0 | 0.00 | 0.00 | 0.00 | 90 | 1017.1 |
| 20260508070042 | 47 | 0 | 0.0 | 0.0 | 0.00 | 0.00 | 0.00 | 90 | 1017.2 |
| 20260508064540 | 47 | 0 | 0.0 | 0.0 | 0.00 | 0.00 | 0.00 | 90 | 1017.1 |
| 20260508063037 | 47 | 0 | 0.0 | 0.0 | 0.00 | 0.00 | 0.00 | 90 | 1017.2 |
| 20260508061538 | 47 | 0 | 0.0 | 0.0 | 0.00 | 0.00 | 0.00 | 89 | 1017.2 |
| 20260508060041 | 48 | 0 | 0.0 | 0.0 | 0.00 | 0.00 | 0.00 | 89 | 1017.2 |
| 20260508054600 | 48 | 0 | 0.0 | 0.0 | 0.00 | 0.00 | 0.00 | 89 | 1017.1 |